Flag for Australia Weather past 2 weeks in The Settlement, Christmas Island, Australia

Now
72 °F

Clear.


Feels Like: 67 °F
Forecast: 71 / 80 °F
Wind: No wind

Location: Christmas Island Aerodrome

Current Time: Mar 2, 2015 at 12:05:57 AM

Latest Report: Mar 1, 2015 at 11:00 PM


Visibility: N/A

Pressure: 29.92 "Hg

Humidity: 94%

Dew point: 70 °F

Location of The SettlementLocation

Historic Weather in The Settlement — Graph

°F

The Settlement temperature yesterday

Maximum temperature yesterday: 82 °F (at 9:00 AM)
Minimum temperature yesterday: 70 °F (at 6:00 AM)
Average temperature yesterday: 77 °F

Past Weeks' High & Low Weather Summary

 TemperatureHumidityPressure
High86 °F (Feb 22, 3:00 PM)100% (Feb 15, 12:00 AM)29.98 "Hg (Feb 15, 12:00 AM)
Low70 °F (Mar 1, 6:00 AM)62% (Mar 1, 9:00 AM)29.77 "Hg (Feb 15, 3:02 AM)
Average78 °F88%29.87 "Hg
* Reported Feb 14 10:00 PM — Mar 1 10:00 PM, The Settlement, Weather by CustomWeather, © 2015

Note: Actual official high and low records may vary slightly from our data, if they occured in-between our weather recording intervals... More about our weather records

Advertising

The Settlement weather history for previous 24 hours

 ConditionsComfort  
Time TempWeatherWind HumidityBarometerVisibility
10:00 PM
Sun, Mar 1
73 °FClear.No wind89%29.92 "HgN/A
9:00 PM73 °FClear.3 mph89%29.92 "HgN/A
8:00 PM75 °FClear.No wind89%29.89 "HgN/A
7:00 PM77 °FPassing clouds.No wind83%29.89 "HgN/A
6:00 PM79 °FSunny.No wind79%29.86 "HgN/A
5:00 PM81 °FCloudy.3 mph70%29.83 "HgN/A
4:00 PM81 °FMostly cloudy.3 mph74%29.83 "HgN/A
3:00 PM81 °FCloudy.1 mph74%29.83 "HgN/A
2:00 PM81 °FBroken clouds.5 mph70%29.86 "HgN/A
1:00 PM82 °FBroken clouds.3 mph70%29.89 "HgN/A
12:00 PM82 °FMostly cloudy.6 mph66%29.92 "HgN/A
11:00 AM81 °FBroken clouds.7 mph70%29.92 "HgN/A
10:00 AM82 °FScattered clouds.6 mph70%29.92 "HgN/A
9:00 AM82 °FSunny.1 mph62%29.92 "HgN/A
8:00 AM79 °FSunny.1 mph79%29.89 "HgN/A
7:00 AM73 °FSunny.No wind94%29.89 "HgN/A
6:00 AM70 °FSunny.No wind100%29.86 "HgN/A
5:00 AM72 °FClear.2 mph94%29.86 "HgN/A
4:00 AM72 °FClear.1 mph94%29.86 "HgN/A
3:00 AM72 °FClear.No wind94%29.86 "HgN/A
2:00 AM72 °FMild.No wind94%29.86 "HgN/A
1:00 AM72 °FClear.2 mph94%29.89 "HgN/A
12:00 AM72 °FClear.No wind94%29.89 "HgN/A
Weather by CustomWeather, © 2015

See weather overviewHow to use our weather pages